Location: Canazei
(46.4667°N, 11.7667°E)
Time: 05:41:07
(UTC+00:00)

DELTA 2 R/B (1) - Pass Details

Date: 21 April 2021
Orbit: 789 x 803 km, 39.6° (Epoch: 15 May)

Event Time Altitude Azimuth Distance (km) Brightness Sun altitude
Exits shadow 02:23:19 31° 227° (SW) 1,360 4.2 -17.6°
Maximum altitude 02:25:11 41° 184° (S) 1,136 4.0 -17.4°
Drops below altitude 10° 02:30:21 10° 116° (ESE) 2,355 6.3 -16.7°
Sets 02:32:57 0° 109° (ESE) 3,286 7.2 -16.3°
